When you browse on this site, cookies collect data to enhance your experience and personalize the content and advertising you see.
Visit our Privacy Policy to learn more. By continuing to use the site, you agree to this use of cookies and data.
  • In Deutschland
  • Länderverzeichnis
  • Für 7 Tage
  • Wassertemperatur
  • Wetterkarte
  • Widgets
  • user-avatar
    Anmelden

    Stündliche Wetter Chinandega

    Heute, 30 März, Montag

    Zeit Temperatur Niederschläge Wind Luftdruck Luftfeuchtigkeit
    00:00 +27°C° 0 mm 2 m/S 756 mmHg 70%
    01:00 +26°C° 0 mm 2 m/S 756 mmHg 71%
    02:00 +26°C° 0 mm 2 m/S 755 mmHg 73%
    03:00 +25°C° 0 mm 2 m/S 755 mmHg 75%
    04:00 +25°C° 0 mm 2 m/S 755 mmHg 77%
    05:00 +24°C° 0 mm 2 m/S 756 mmHg 78%
    06:00 +24°C° 0 mm 2 m/S 756 mmHg 80%
    07:00 +27°C° 0 mm 3 m/S 756 mmHg 66%
    08:00 +30°C° 0 mm 3 m/S 757 mmHg 52%
    09:00 +34°C° 0 mm 3 m/S 757 mmHg 38%
    10:00 +37°C° 0 mm 3 m/S 756 mmHg 33%
    11:00 +39°C° 0 mm 3 m/S 755 mmHg 29%
    12:00 +42°C° 0 mm 3 m/S 755 mmHg 24%
    13:00 +42°C° 0 mm 4 m/S 754 mmHg 24%
    14:00 +42°C° 0 mm 4 m/S 753 mmHg 25%
    15:00 +42°C° 0 mm 5 m/S 752 mmHg 26%
    16:00 +38°C° 0 mm 4 m/S 752 mmHg 35%
    17:00 +35°C° 0 mm 3 m/S 752 mmHg 45%
    18:00 +31°C° 0 mm 3 m/S 752 mmHg 54%
    19:00 +30°C° 0 mm 2 m/S 753 mmHg 61%
    20:00 +28°C° 0 mm 1 m/S 754 mmHg 67%
    21:00 +27°C° 0 mm 1 m/S 755 mmHg 74%
    22:00 +26°C° 0 mm 1 m/S 755 mmHg 75%
    23:00 +26°C° 0 mm 1 m/S 755 mmHg 77%

    Morgen, 31 März, Dienstag

    Zeit Temperatur Niederschläge Wind Luftdruck Luftfeuchtigkeit
    00:00 +26°C° 0 mm 1 m/S 755 mmHg 78%
    01:00 +25°C° 0 mm 1 m/S 755 mmHg 78%
    02:00 +25°C° 0 mm 1 m/S 755 mmHg 77%
    03:00 +25°C° 0 mm 1 m/S 754 mmHg 77%
    04:00 +25°C° 0 mm 1 m/S 755 mmHg 76%
    05:00 +24°C° 0 mm 2 m/S 755 mmHg 76%
    06:00 +24°C° 0 mm 2 m/S 755 mmHg 75%
    07:00 +28°C° 0 mm 2 m/S 755 mmHg 61%
    08:00 +31°C° 0 mm 2 m/S 756 mmHg 47%
    09:00 +36°C° 0 mm 2 m/S 756 mmHg 34%
    10:00 +38°C° 0 mm 2 m/S 755 mmHg 28%
    11:00 +40°C° 0 mm 2 m/S 754 mmHg 22%
    12:00 +43°C° 0 mm 2 m/S 754 mmHg 16%
    13:00 +42°C° 0 mm 3 m/S 753 mmHg 20%
    14:00 +41°C° 0 mm 4 m/S 752 mmHg 25%
    15:00 +40°C° 0 mm 5 m/S 751 mmHg 29%
    16:00 +36°C° 0 mm 4 m/S 751 mmHg 39%
    17:00 +34°C° 0 mm 4 m/S 751 mmHg 49%
    18:00 +30°C° 0 mm 3 m/S 751 mmHg 59%
    19:00 +29°C° 0 mm 3 m/S 752 mmHg 67%
    20:00 +28°C° 0 mm 2 m/S 753 mmHg 75%
    21:00 +27°C° 0 mm 2 m/S 754 mmHg 83%
    22:00 +27°C° 0.1 mm 1 m/S 754 mmHg 83%
    23:00 +27°C° 0.1 mm 1 m/S 754 mmHg 83%

    übermorgen, 1 April, Mittwoch

    Zeit Temperatur Niederschläge Wind Luftdruck Luftfeuchtigkeit
    00:00 +26°C° 0.1 mm 1 m/S 754 mmHg 84%
    01:00 +26°C° 0 mm 1 m/S 754 mmHg 83%
    02:00 +26°C° 0 mm 1 m/S 753 mmHg 81%
    03:00 +26°C° 0 mm 1 m/S 753 mmHg 80%
    04:00 +26°C° 0 mm 1 m/S 754 mmHg 81%
    05:00 +26°C° 0 mm 2 m/S 754 mmHg 82%
    06:00 +25°C° 0 mm 2 m/S 754 mmHg 83%
    07:00 +29°C° 0 mm 1 m/S 755 mmHg 69%
    08:00 +33°C° 0 mm 1 m/S 755 mmHg 55%
    09:00 +37°C° 0 mm 1 m/S 756 mmHg 41%
    10:00 +38°C° 0 mm 2 m/S 755 mmHg 39%
    11:00 +39°C° 0 mm 2 m/S 754 mmHg 38%
    12:00 +40°C° 0 mm 3 m/S 753 mmHg 36%
    13:00 +40°C° 0 mm 4 m/S 753 mmHg 39%
    14:00 +38°C° 0 mm 4 m/S 752 mmHg 42%
    15:00 +37°C° 0 mm 5 m/S 751 mmHg 45%
    16:00 +35°C° 0 mm 4 m/S 751 mmHg 52%
    17:00 +33°C° 0 mm 4 m/S 751 mmHg 60%
    18:00 +30°C° 0 mm 3 m/S 752 mmHg 67%
    19:00 +29°C° 0.3 mm 2 m/S 752 mmHg 74%
    20:00 +28°C° 0.3 mm 2 m/S 753 mmHg 80%
    21:00 +27°C° 0.3 mm 1 m/S 754 mmHg 87%
    22:00 +27°C° 0.6 mm 1 m/S 754 mmHg 87%
    23:00 +27°C° 0.6 mm 1 m/S 754 mmHg 88%

    2 April, Donnerstag

    Zeit Temperatur Niederschläge Wind Luftdruck Luftfeuchtigkeit
    00:00 +26°C° 0.6 mm 1 m/S 754 mmHg 89%
    01:00 +27°C° 0.3 mm 1 m/S 754 mmHg 86%
    02:00 +27°C° 0.3 mm 1 m/S 754 mmHg 83%
    03:00 +27°C° 0.3 mm 1 m/S 754 mmHg 81%
    04:00 +27°C° 0.1 mm 1 m/S 754 mmHg 82%
    05:00 +26°C° 0.1 mm 2 m/S 754 mmHg 83%
    06:00 +26°C° 0.1 mm 2 m/S 755 mmHg 85%
    07:00 +29°C° 0 mm 2 m/S 755 mmHg 72%
    08:00 +32°C° 0 mm 2 m/S 755 mmHg 60%
    09:00 +36°C° 0 mm 2 m/S 756 mmHg 48%
    10:00 +37°C° 0 mm 2 m/S 755 mmHg 44%
    11:00 +38°C° 0 mm 2 m/S 755 mmHg 41%
    12:00 +38°C° 0 mm 3 m/S 754 mmHg 38%
    13:00 +38°C° 0 mm 3 m/S 753 mmHg 40%
    14:00 +37°C° 0 mm 4 m/S 753 mmHg 41%
    15:00 +36°C° 0 mm 4 m/S 752 mmHg 43%
    16:00 +35°C° 0 mm 4 m/S 752 mmHg 51%
    17:00 +33°C° 0 mm 3 m/S 752 mmHg 58%
    18:00 +30°C° 0 mm 3 m/S 752 mmHg 65%
    19:00 +30°C° 0.2 mm 2 m/S 753 mmHg 71%
    20:00 +29°C° 0.2 mm 2 m/S 754 mmHg 77%
    21:00 +28°C° 0.2 mm 1 m/S 755 mmHg 83%
    22:00 +27°C° 0.5 mm 1 m/S 755 mmHg 83%
    23:00 +27°C° 0.5 mm 1 m/S 755 mmHg 84%

    3 April, Freitag

    Zeit Temperatur Niederschläge Wind Luftdruck Luftfeuchtigkeit
    00:00 +27°C° 0.5 mm 1 m/S 755 mmHg 84%
    01:00 +27°C° 0.3 mm 1 m/S 754 mmHg 83%
    02:00 +27°C° 0.3 mm 1 m/S 754 mmHg 81%
    03:00 +27°C° 0.3 mm 1 m/S 754 mmHg 80%
    04:00 +27°C° 0 mm 1 m/S 754 mmHg 80%
    05:00 +27°C° 0 mm 2 m/S 754 mmHg 81%
    06:00 +26°C° 0 mm 2 m/S 755 mmHg 81%
    07:00 +29°C° 0 mm 2 m/S 755 mmHg 68%
    08:00 +33°C° 0 mm 1 m/S 755 mmHg 55%
    09:00 +36°C° 0 mm 1 m/S 756 mmHg 43%
    10:00 +38°C° 0 mm 2 m/S 755 mmHg 39%
    11:00 +39°C° 0 mm 2 m/S 755 mmHg 36%
    12:00 +42°C° 0 mm 3 m/S 754 mmHg 32%
    13:00 +39°C° 0 mm 3 m/S 753 mmHg 36%
    14:00 +37°C° 0 mm 4 m/S 753 mmHg 40%
    15:00 +36°C° 0 mm 4 m/S 752 mmHg 44%
    16:00 +34°C° 0 mm 4 m/S 752 mmHg 50%
    17:00 +33°C° 0 mm 3 m/S 752 mmHg 55%
    18:00 +30°C° 0 mm 2 m/S 752 mmHg 61%
    19:00 +30°C° 0 mm 2 m/S 753 mmHg 65%
    20:00 +29°C° 0 mm 1 m/S 753 mmHg 69%
    21:00 +28°C° 0 mm 1 m/S 754 mmHg 74%
    22:00 +28°C° 0 mm 1 m/S 754 mmHg 75%
    23:00 +25°C° 0 mm 0 m/S 754 mmHg 76%

    4 April, Samstag

    Zeit Temperatur Niederschläge Wind Luftdruck Luftfeuchtigkeit
    00:00 +25°C° 0 mm 0 m/S 754 mmHg 77%
    01:00 +27°C° 0 mm 1 m/S 754 mmHg 76%
    02:00 +27°C° 0 mm 1 m/S 754 mmHg 76%
    03:00 +27°C° 0 mm 1 m/S 754 mmHg 76%
    04:00 +27°C° 0 mm 1 m/S 754 mmHg 76%
    05:00 +26°C° 0 mm 2 m/S 754 mmHg 75%
    06:00 +26°C° 0 mm 2 m/S 754 mmHg 75%
    07:00 +29°C° 0 mm 2 m/S 755 mmHg 64%
    08:00 +33°C° 0 mm 1 m/S 755 mmHg 53%
    09:00 +36°C° 0 mm 1 m/S 755 mmHg 42%
    10:00 +38°C° 0 mm 2 m/S 755 mmHg 39%
    11:00 +39°C° 0 mm 2 m/S 754 mmHg 37%
    12:00 +40°C° 0 mm 3 m/S 753 mmHg 34%
    13:00 +39°C° 0 mm 3 m/S 753 mmHg 37%
    14:00 +38°C° 0 mm 4 m/S 752 mmHg 40%
    15:00 +37°C° 0 mm 4 m/S 751 mmHg 44%
    16:00 +35°C° 0 mm 4 m/S 751 mmHg 51%
    17:00 +33°C° 0 mm 3 m/S 751 mmHg 58%
    18:00 +31°C° 0 mm 3 m/S 751 mmHg 65%
    19:00 +30°C° 0 mm 2 m/S 752 mmHg 69%
    20:00 +29°C° 0 mm 2 m/S 752 mmHg 72%
    21:00 +29°C° 0 mm 2 m/S 753 mmHg 76%
    22:00 +28°C° 0.1 mm 1 m/S 753 mmHg 79%
    23:00 +28°C° 0.1 mm 1 m/S 753 mmHg 81%
    Mehr zeigen